Location: Herksen
(52.4316°N, 6.1319°E)
Time: 15:15:57
(UTC+00:00)

Geosat - Pass Details

Date: 15 May 2026
Orbit: 758 x 760 km, 108.0° (Epoch: 9 June)

Event Time Altitude Azimuth Distance (km) Brightness Sun altitude
Rises 22:24:57 0° 31° (NNE) 3,232 7.9 -17.1°
Reaches altitude 10° 22:27:14 10° 33° (NNE) 2,302 7.0 -17.2°
Maximum altitude 22:32:16 83° 121° (ESE) 773 3.9 -17.4°
Enters shadow 22:35:39 21° 209° (SSW) 1,656 5.3 -17.5°
